Showing default

SICH-2-1, 51030

Orbit data source: Space-Track

SICH-2-1, 51030 is a payload satellite owned by DKAU (UA) in SSO that was launched on Thu, 13 Jan 2022 UTC via an FALCON 9 launch vehicle from the Air Force Eastern Test Range (AFETR). Payload-class satellites include a variety of spacecraft equipped with specific instruments for various scientific and technological missions. These include communications satellites like Starlink; space stations such as the ISS; scientific satellites like the Hubble; Earth observation satellites from companies like Planet Labs, Umbra, and HawkEye 360; GPS; miniature CubeSats for education and research; and military/defense satellites.

Loading next visibility...
Identifier
51030, 2022-002AY
Orbit
SSO
Last TLE update
6 hours ago
Origin
Manufacturer
Yuzhnoe
Mission
Operational Civil Imaging
Bus & Motor
MS-2-8, Unknown motor
Mass
170 kg wet, 170 kg dry
Launch date (UTC)
2022-01-13 (3 years ago)
Launch vehicle
FALCON 9
Launch site
Air Force Eastern Test Range (AFETR)
Object type
Payload
Rocket body
Debris
Shape & HBR
Box, 1 m
Radar Cross Section
1.500 m², Large (>1 m²)

Expand to show TLE details & history

TLE from 6 hours ago
0 SICH-2-1
1 51030U 22002AY  25191.95033827  .00057736  00000-0  48533-3 0  9994
2 51030  97.3325 270.0921 0002893  88.8178 271.3416 15.69714382194445
Epoch: 2025-07-10T22:48Z
TLE epoch observation values (Epoch: 2025-07-10T22:48:29.226Z)
Latitude
0.00002°
Longitude
-1.13894°
Altitude
362.829 km
Speed
7.692 km/s
True Right ascension
18h 00m 22s
True Declination
0° 00' 00"
Sunlit
Object was in full shadow at epoch
Visualization orbit readout
Latitude
-69.78365°
Longitude
19.44828°
Altitude
387.576 km
Speed
7.675 km/s
Apparent Right ascension
03h 14m 23s
Apparent Declination
-72° 11' 05"
Sunlit
Object is in full shadow
Visualization observer readout
Local Sidereal Time
16:54:28
Azimuth
166.816° S
Elevation
-55.441°
Doppler factor
1
Orbital elements
Apogee altitude
358.559 km
Perigee altitude
354.663 km
Semi-major axis
6,734.748 km
Eccentricity
0.00029
Inclination
97.3325°
RAAN
270.0921°
Arg. of periapsis
88.8178°
True anomaly
Unknown
Mean anomaly
271.3416°
Eccentric anomaly
Unknown
Mean motion
3.927 °/min
Orbital period
91.67 mins
BSTAR
0.00048533
Loading maneuver chart data...
Loading SW <> Apogee altitude chart data...

SICH-2-1 Visibility forecast

Observer location: undefined°, undefined°

Span
Click to sort rows by Start time (UTC) header in descending order
Start Az.
Max El. time (UTC)
Max El. Az.
Max El.
End time (UTC)
End Az.
5 mins2025-07-11 05:03:32.925Z150.772° SSE2025-07-11 05:06:32.925Z39.597° NE34.222°2025-07-11 05:08:32.925Z0.569° NNE
|